Voltar ao catálogo

BREEZE-M R/B

AtivoMEO
NORAD 26738·ROCKET BODY·🇷🇺 Russia

Lançado Apr 7, 2001 de Baikonur Cosmodrome

Loading…

Próximas Passagens (próximas 24 horas)

TLE

AtualizadoSource: Space-Track

Época: Sep 14, 2026, 03:26 UTC

1 26738U 01014C   26257.14360372 -.00000324  00000-0  00000-0 0  9990
2 26738  15.3345  13.5377 0179960 237.2514 133.6209  0.97965842 91038

Acompanhe BREEZE-M R/B em tempo real com AllMySat

Download on the App Store